When you browse on this site, cookies collect data to enhance your experience and personalize the content and advertising you see.
Visit our Privacy Policy to learn more. By continuing to use the site, you agree to this use of cookies and data.
  • In Portugal
  • List of Countries
  • For 7 days
  • Water Temperature
  • Satellite Maps
  • Weather Map
  • Weather Widgets
  • user-avatar
    Login

    Hourly Weather Dzhilihur

    Today, 26 June, Wednesday

    Time Temperature Precipitation Wind Pressure Humidity
    00:00 +15°C° 0 mm 1 mps 625 mmHg 65%
    01:00 +15°C° 0 mm 1 mps 625 mmHg 65%
    02:00 +15°C° 0 mm 1 mps 625 mmHg 66%
    03:00 +15°C° 0 mm 1 mps 625 mmHg 66%
    04:00 +16°C° 0 mm 1 mps 626 mmHg 63%
    05:00 +19°C° 0 mm 1 mps 626 mmHg 61%
    06:00 +20°C° 0 mm 1 mps 627 mmHg 58%
    07:00 +22°C° 0 mm 1 mps 628 mmHg 55%
    08:00 +23°C° 0 mm 1 mps 628 mmHg 51%
    09:00 +24°C° 0 mm 2 mps 629 mmHg 48%
    10:00 +25°C° 0.2 mm 2 mps 629 mmHg 50%
    11:00 +25°C° 0.2 mm 3 mps 629 mmHg 51%
    12:00 +25°C° 0.2 mm 3 mps 629 mmHg 53%
    13:00 +25°C° 0.5 mm 3 mps 629 mmHg 54%
    14:00 +25°C° 0.5 mm 3 mps 628 mmHg 54%
    15:00 +25°C° 0.5 mm 2 mps 628 mmHg 55%
    16:00 +24°C° 0.4 mm 2 mps 628 mmHg 58%
    17:00 +23°C° 0.4 mm 2 mps 628 mmHg 61%
    18:00 +23°C° 0.4 mm 2 mps 627 mmHg 65%
    19:00 +21°C° 0.1 mm 1 mps 627 mmHg 69%
    20:00 +19°C° 0.1 mm 1 mps 626 mmHg 73%
    21:00 +16°C° 0.1 mm 1 mps 625 mmHg 77%
    22:00 +15°C° 0 mm 1 mps 625 mmHg 78%
    23:00 +14°C° 0 mm 0 mps 625 mmHg 80%

    Tomorrow, 27 June, Thursday

    Time Temperature Precipitation Wind Pressure Humidity
    00:00 +13°C° 0 mm 0 mps 624 mmHg 82%
    01:00 +14°C° 0 mm 1 mps 624 mmHg 81%
    02:00 +14°C° 0 mm 1 mps 624 mmHg 80%
    03:00 +14°C° 0 mm 1 mps 624 mmHg 79%
    04:00 +15°C° 0 mm 1 mps 624 mmHg 77%
    05:00 +18°C° 0 mm 1 mps 625 mmHg 75%
    06:00 +19°C° 0 mm 1 mps 625 mmHg 73%
    07:00 +20°C° 0.2 mm 1 mps 626 mmHg 71%
    08:00 +20°C° 0.2 mm 2 mps 626 mmHg 69%
    09:00 +21°C° 0.2 mm 2 mps 626 mmHg 68%
    10:00 +21°C° 0.8 mm 2 mps 626 mmHg 71%
    11:00 +21°C° 0.8 mm 2 mps 626 mmHg 74%
    12:00 +21°C° 0.8 mm 2 mps 625 mmHg 77%
    13:00 +21°C° 0.8 mm 2 mps 625 mmHg 76%
    14:00 +21°C° 0.8 mm 2 mps 625 mmHg 75%
    15:00 +21°C° 0.8 mm 2 mps 624 mmHg 74%
    16:00 +20°C° 0.4 mm 2 mps 624 mmHg 76%
    17:00 +21°C° 0.4 mm 1 mps 624 mmHg 79%
    18:00 +20°C° 0.4 mm 1 mps 623 mmHg 81%
    19:00 +19°C° 0.1 mm 1 mps 623 mmHg 84%
    20:00 +16°C° 0.1 mm 1 mps 622 mmHg 87%
    21:00 +15°C° 0.1 mm 1 mps 622 mmHg 90%
    22:00 +15°C° 0 mm 1 mps 622 mmHg 90%
    23:00 +14°C° 0 mm 1 mps 621 mmHg 90%

    Day after tomorrow, 28 June, Friday

    Time Temperature Precipitation Wind Pressure Humidity
    00:00 +14°C° 0 mm 1 mps 621 mmHg 90%
    01:00 +14°C° 0 mm 1 mps 620 mmHg 89%
    02:00 +14°C° 0 mm 1 mps 620 mmHg 88%
    03:00 +13°C° 0 mm 1 mps 620 mmHg 87%
    04:00 +15°C° 0 mm 1 mps 620 mmHg 84%
    05:00 +16°C° 0 mm 1 mps 621 mmHg 82%
    06:00 +18°C° 0 mm 1 mps 621 mmHg 80%
    07:00 +19°C° 0 mm 1 mps 621 mmHg 75%
    08:00 +21°C° 0 mm 1 mps 621 mmHg 70%
    09:00 +21°C° 0 mm 2 mps 622 mmHg 66%
    10:00 +21°C° 0.7 mm 2 mps 621 mmHg 66%
    11:00 +23°C° 0.7 mm 2 mps 621 mmHg 67%
    12:00 +23°C° 0.7 mm 2 mps 621 mmHg 68%
    13:00 +23°C° 1 mm 2 mps 621 mmHg 65%
    14:00 +23°C° 1 mm 2 mps 621 mmHg 63%
    15:00 +24°C° 1 mm 2 mps 620 mmHg 60%
    16:00 +23°C° 0.5 mm 2 mps 620 mmHg 64%
    17:00 +21°C° 0.5 mm 2 mps 619 mmHg 68%
    18:00 +21°C° 0.5 mm 2 mps 619 mmHg 73%
    19:00 +19°C° 0 mm 2 mps 618 mmHg 76%
    20:00 +17°C° 0 mm 2 mps 618 mmHg 80%
    21:00 +16°C° 0 mm 2 mps 618 mmHg 83%
    22:00 +16°C° 0 mm 2 mps 618 mmHg 84%
    23:00 +16°C° 0 mm 2 mps 618 mmHg 84%

    29 June, Saturday

    Time Temperature Precipitation Wind Pressure Humidity
    00:00 +16°C° 0 mm 1 mps 618 mmHg 85%
    01:00 +16°C° 0 mm 1 mps 618 mmHg 84%
    02:00 +16°C° 0 mm 1 mps 618 mmHg 83%
    03:00 +16°C° 0 mm 1 mps 618 mmHg 82%
    04:00 +18°C° 0 mm 1 mps 618 mmHg 81%
    05:00 +18°C° 0 mm 1 mps 618 mmHg 80%
    06:00 +18°C° 0 mm 1 mps 618 mmHg 79%
    07:00 +20°C° 0.1 mm 1 mps 619 mmHg 75%
    08:00 +20°C° 0.1 mm 2 mps 619 mmHg 70%
    09:00 +23°C° 0.1 mm 2 mps 620 mmHg 66%
    10:00 +22°C° 0.8 mm 3 mps 620 mmHg 66%
    11:00 +22°C° 0.8 mm 3 mps 620 mmHg 67%
    12:00 +22°C° 0.8 mm 3 mps 620 mmHg 67%
    13:00 +22°C° 1.5 mm 3 mps 620 mmHg 71%
    14:00 +21°C° 1.5 mm 3 mps 619 mmHg 74%
    15:00 +20°C° 1.5 mm 2 mps 619 mmHg 78%
    16:00 +20°C° 1.1 mm 2 mps 619 mmHg 77%
    17:00 +20°C° 1.1 mm 2 mps 619 mmHg 77%
    18:00 +21°C° 1.1 mm 1 mps 619 mmHg 77%
    19:00 +20°C° 0.7 mm 1 mps 619 mmHg 83%
    20:00 +18°C° 0.7 mm 1 mps 620 mmHg 89%
    21:00 +16°C° 0.7 mm 1 mps 620 mmHg 95%
    22:00 +16°C° 3 mm 1 mps 620 mmHg 94%
    23:00 +16°C° 3 mm 1 mps 620 mmHg 93%

    30 June, Sunday

    Time Temperature Precipitation Wind Pressure Humidity
    00:00 +15°C° 3 mm 1 mps 620 mmHg 93%
    01:00 +15°C° 0.1 mm 1 mps 620 mmHg 92%
    02:00 +14°C° 0.1 mm 0 mps 620 mmHg 91%
    03:00 +13°C° 0.1 mm 0 mps 620 mmHg 91%
    04:00 +14°C° 0 mm 0 mps 620 mmHg 90%
    05:00 +15°C° 0 mm 1 mps 620 mmHg 89%
    06:00 +16°C° 0 mm 1 mps 620 mmHg 88%
    07:00 +18°C° 0.2 mm 1 mps 621 mmHg 85%
    08:00 +18°C° 0.2 mm 2 mps 621 mmHg 83%
    09:00 +19°C° 0.2 mm 3 mps 621 mmHg 80%
    10:00 +19°C° 0.5 mm 3 mps 621 mmHg 81%
    11:00 +19°C° 0.5 mm 3 mps 621 mmHg 81%
    12:00 +19°C° 0.5 mm 3 mps 621 mmHg 82%
    13:00 +19°C° 0.7 mm 3 mps 621 mmHg 83%
    14:00 +19°C° 0.7 mm 3 mps 621 mmHg 85%
    15:00 +19°C° 0.7 mm 2 mps 621 mmHg 86%
    16:00 +18°C° 0.5 mm 2 mps 621 mmHg 87%
    17:00 +18°C° 0.5 mm 2 mps 621 mmHg 89%
    18:00 +18°C° 0.5 mm 1 mps 621 mmHg 91%
    19:00 +18°C° 0.5 mm 1 mps 621 mmHg 93%
    20:00 +16°C° 0.5 mm 2 mps 621 mmHg 95%
    21:00 +15°C° 0.5 mm 2 mps 621 mmHg 98%
    22:00 +15°C° 1 mm 2 mps 622 mmHg 98%
    23:00 +15°C° 1 mm 2 mps 622 mmHg 98%

    1 July, Monday

    Time Temperature Precipitation Wind Pressure Humidity
    00:00 +15°C° 1 mm 2 mps 622 mmHg 98%
    01:00 +15°C° 2 mm 2 mps 622 mmHg 98%
    02:00 +15°C° 2 mm 2 mps 621 mmHg 98%
    03:00 +14°C° 2 mm 2 mps 621 mmHg 99%
    04:00 +14°C° 2 mm 2 mps 621 mmHg 98%
    05:00 +14°C° 2 mm 2 mps 621 mmHg 98%
    06:00 +14°C° 2 mm 2 mps 621 mmHg 98%
    07:00 +14°C° 2.1 mm 2 mps 621 mmHg 98%
    08:00 +13°C° 2.1 mm 2 mps 621 mmHg 98%
    09:00 +13°C° 2.1 mm 2 mps 621 mmHg 98%
    10:00 +12°C° 3 mm 3 mps 622 mmHg 98%
    11:00 +12°C° 3 mm 3 mps 622 mmHg 98%
    12:00 +12°C° 3 mm 3 mps 622 mmHg 98%
    13:00 +12°C° 1.7 mm 3 mps 622 mmHg 98%
    14:00 +13°C° 1.7 mm 2 mps 621 mmHg 98%
    15:00 +13°C° 1.7 mm 2 mps 621 mmHg 98%
    16:00 +13°C° 1.5 mm 2 mps 621 mmHg 98%
    17:00 +12°C° 1.5 mm 2 mps 621 mmHg 98%
    18:00 +12°C° 1.5 mm 2 mps 622 mmHg 98%
    19:00 +12°C° 1.4 mm 1 mps 622 mmHg 98%
    20:00 +12°C° 1.4 mm 1 mps 622 mmHg 97%
    21:00 +11°C° 1.4 mm 1 mps 622 mmHg 97%
    22:00 +11°C° 1.6 mm 1 mps 622 mmHg 97%
    23:00 +11°C° 1.6 mm 1 mps 622 mmHg 96%
    Show more